GW6562 Weather Reports


Display with metric or nautical units.
time (UTC)temp
F
wind
direction
speed
MPH
gust
MPH
rain 1hr
in
rain 24hr
in
rain mn
in
humidity
%
barometer
mb
20260502210458 52 5 0.0 2.0 0.00 0.09 0.09 88 1009.7
20260502210000 52 5 1.0 3.0 0.00 0.09 0.09 88 1009.8
20260502205500 52 5 1.0 3.0 0.00 0.09 0.09 87 1009.7
20260502204957 52 342 1.0 4.0 0.00 0.09 0.09 87 1009.7
20260502204458 52 351 2.0 4.0 0.00 0.09 0.09 87 1009.7
20260502203959 53 335 0.0 3.0 0.00 0.09 0.09 87 1009.7
20260502203458 53 346 3.0 3.0 0.00 0.09 0.09 87 1009.7
20260502201957 53 5 2.0 3.0 0.00 0.09 0.09 87 1009.8
20260502201458 53 13 1.0 3.0 0.00 0.09 0.09 87 1009.8
20260502200959 53 13 2.0 3.0 0.00 0.09 0.09 87 1009.8
20260502200457 53 11 3.0 3.0 0.01 0.09 0.09 86 1009.8
20260502195959 53 32 1.0 2.0 0.01 0.09 0.09 86 1009.8
20260502195457 53 65 1.0 2.0 0.01 0.09 0.09 86 1009.8
20260502194957 53 65 1.0 1.0 0.01 0.09 0.09 86 1009.8
20260502194458 53 65 0.0 2.0 0.01 0.09 0.09 86 1009.8
20260502193457 53 65 0.0 2.0 0.02 0.09 0.09 86 1009.9
20260502192957 53 46 0.0 2.0 0.02 0.09 0.09 86 1009.9
20260502192457 53 43 2.0 2.0 0.03 0.09 0.09 86 1009.9
20260502191957 53 12 0.0 1.0 0.04 0.09 0.09 86 1009.9
20260502191458 54 12 0.0 1.0 0.05 0.09 0.09 86 1010.0
20260502190958 54 12 0.0 1.0 0.06 0.09 0.09 86 1010.0
20260502190458 54 12 1.0 2.0 0.05 0.09 0.09 85 1010.1
20260502190000 54 12 2.0 2.0 0.05 0.09 0.09 85 1010.1
20260502184458 54 133 0.0 2.0 0.06 0.09 0.09 85 1010.3
20260502183958 54 133 0.0 2.0 0.06 0.08 0.08 85 1010.3
20260502183458 54 133 1.0 2.0 0.06 0.07 0.07 85 1010.2
20260502182957 54 147 1.0 3.0 0.06 0.07 0.07 84 1010.3
20260502182457 54 131 0.0 5.0 0.06 0.06 0.06 84 1010.2
20260502180957 54 128 2.0 4.0 0.03 0.04 0.04 84 1010.4
20260502170458 56 163 4.0 7.0 0.00 0.00 0.00 80 1011.0
20260502163958 56 153 4.0 8.0 0.00 0.00 0.00 78 1011.1
20260502163457 56 163 6.0 8.0 0.00 0.00 0.00 78 1011.2
20260502161458 57 152 4.0 7.0 0.00 0.00 0.00 77 1011.1
20260502160958 58 178 1.0 8.0 0.00 0.00 0.00 76 1011.0
20260502160457 58 130 3.0 8.0 0.00 0.00 0.00 75 1011.1
20260502151957 59 145 5.0 7.0 0.00 0.00 0.00 73 1011.3
20260502151457 59 148 4.0 7.0 0.00 0.00 0.00 73 1011.5
20260502150958 59 162 4.0 7.0 0.00 0.00 0.00 73 1011.5
20260502150458 60 154 3.0 5.0 0.00 0.00 0.00 73 1011.7
20260502130458 60 154 3.0 9.0 0.00 0.00 0.00 73 1012.7
20260502122958 60 153 7.0 8.0 0.00 0.00 0.00 73 1013.1
20260502121958 60 140 2.0 10.0 0.00 0.00 0.00 74 1013.3
20260502121459 60 161 5.0 10.0 0.00 0.00 0.00 74 1013.4
20260502120958 59 152 5.0 10.0 0.00 0.00 0.00 75 1013.4
20260502115501 59 161 7.0 10.0 0.00 0.00 0.00 77 1013.6
20260502114959 59 167 5.0 9.0 0.00 0.00 0.00 76 1013.5
20260502114459 59 115 3.0 9.0 0.00 0.00 0.00 77 1013.6
20260502113958 59 119 3.0 9.0 0.00 0.00 0.00 77 1013.7
20260502113457 58 147 9.0 10.0 0.00 0.00 0.00 77 1013.7
20260502112957 58 175 6.0 10.0 0.00 0.00 0.00 77 1013.8
20260502112458 58 153 4.0 9.0 0.00 0.00 0.00 77 1013.9
20260502110957 57 154 6.0 10.0 0.00 0.00 0.00 77 1014.1
20260502105958 58 146 4.0 11.0 0.00 0.00 0.00 77 1014.4
20260502105459 58 157 7.0 11.0 0.00 0.00 0.00 77 1014.4
20260502104458 58 182 5.0 11.0 0.00 0.00 0.00 77 1014.6
20260502103957 58 161 6.0 11.0 0.00 0.00 0.00 76 1014.5
20260502103457 58 169 6.0 10.0 0.00 0.00 0.00 76 1014.5
20260502102958 58 155 9.0 10.0 0.00 0.00 0.00 76 1014.6
20260502102458 58 148 9.0 11.0 0.00 0.00 0.00 76 1014.5
20260502101958 58 150 4.0 11.0 0.00 0.00 0.00 76 1014.5
20260502101458 58 136 7.0 8.0 0.00 0.00 0.00 75 1014.4
20260502100958 58 180 6.0 10.0 0.00 0.00 0.00 75 1014.5
20260502100457 59 183 6.0 10.0 0.00 0.00 0.00 75 1014.4
20260502091457 58 155 8.0 12.0 0.00 0.00 0.00 80 1014.5
20260502090957 57 142 4.0 12.0 0.00 0.00 0.00 80 1014.7
20260502090458 57 133 5.0 11.0 0.00 0.00 0.00 80 1014.7
20260502071457 54 178 4.0 9.0 0.00 0.00 0.00 87 1015.2
20260502070957 54 192 4.0 9.0 0.00 0.00 0.00 88 1015.2
20260502070458 54 188 6.0 9.0 0.00 0.00 0.00 88 1015.2
20260502065959 54 213 7.0 9.0 0.00 0.00 0.00 88 1015.1
20260502065457 54 200 5.0 8.0 0.00 0.00 0.00 88 1015.1
20260502064957 54 184 5.0 9.0 0.00 0.00 0.00 88 1015.2
20260502064457 53 189 2.0 9.0 0.00 0.00 0.00 88 1015.2
20260502063959 53 171 4.0 9.0 0.00 0.00 0.00 88 1015.2
20260502063457 53 145 4.0 9.0 0.00 0.00 0.00 88 1015.1
20260502062457 53 193 4.0 9.0 0.00 0.00 0.00 88 1015.2
20260502061957 53 190 4.0 8.0 0.00 0.00 0.00 88 1015.2
20260502061457 53 178 2.0 8.0 0.00 0.00 0.00 88 1015.3
20260502060957 53 139 5.0 5.0 0.00 0.00 0.00 88 1015.4
20260502060457 53 161 1.0 5.0 0.00 0.00 0.00 88 1015.5
20260502055959 52 142 1.0 5.0 0.00 0.00 0.00 88 1015.5
20260502054958 52 105 1.0 6.0 0.00 0.00 0.00 88 1015.5
20260502054459 52 126 2.0 6.0 0.00 0.00 0.00 87 1015.5
20260502053959 52 126 2.0 6.0 0.00 0.00 0.00 87 1015.4
20260502053458 52 129 2.0 5.0 0.00 0.00 0.00 87 1015.4
20260502052959 52 142 4.0 6.0 0.00 0.00 0.00 87 1015.4
20260502051959 51 143 2.0 4.0 0.00 0.00 0.00 87 1015.4
20260502051500 51 126 2.0 6.0 0.00 0.00 0.00 87 1015.5
20260502051000 51 151 0.0 6.0 0.00 0.00 0.00 87 1015.5
20260502050459 51 155 2.0 7.0 0.00 0.00 0.00 87 1015.5
20260502050000 51 152 3.0 7.0 0.00 0.00 0.00 87 1015.5
20260502044957 51 155 3.0 5.0 0.00 0.00 0.00 86 1015.5
20260502044457 51 176 2.0 5.0 0.00 0.00 0.00 86 1015.5
20260502043957 51 148 2.0 5.0 0.00 0.00 0.00 86 1015.6
20260502043457 51 182 1.0 5.0 0.00 0.00 0.00 86 1015.6
20260502042957 50 180 3.0 4.0 0.00 0.00 0.00 86 1015.6
20260502041957 51 161 0.0 3.0 0.00 0.00 0.00 86 1015.6
20260502041457 51 151 3.0 3.0 0.00 0.00 0.00 86 1015.6
20260502040957 51 174 0.0 2.0 0.00 0.00 0.00 86 1015.6
20260502035957 51 174 1.0 3.0 0.00 0.00 0.00 86 1015.6
20260502035457 51 174 1.0 3.0 0.00 0.00 0.00 86 1015.7
20260502034958 52 180 1.0 3.0 0.00 0.00 0.00 86 1015.7
20260502034457 52 177 2.0 5.0 0.00 0.00 0.00 86 1015.7
20260502033958 52 170 2.0 6.0 0.00 0.00 0.00 86 1015.8
20260502033457 52 171 4.0 7.0 0.00 0.00 0.00 87 1015.8
20260502032957 52 187 2.0 7.0 0.00 0.00 0.00 87 1015.9
20260502032457 52 175 2.0 7.0 0.00 0.00 0.00 87 1016.0
20260502031957 52 186 3.0 8.0 0.00 0.00 0.00 87 1016.0
20260502031458 52 151 5.0 8.0 0.00 0.00 0.00 87 1016.0
20260502030958 52 158 2.0 6.0 0.00 0.00 0.00 87 1016.1
20260502025958 52 165 4.0 6.0 0.00 0.00 0.00 87 1016.1
20260502025458 52 176 3.0 5.0 0.00 0.00 0.00 87 1016.1
20260502024956 52 173 2.0 5.0 0.00 0.00 0.00 87 1016.3
20260502024459 52 170 1.0 5.0 0.00 0.00 0.00 87 1016.4
20260502023958 52 171 4.0 5.0 0.00 0.00 0.00 86 1016.6
20260502022458 52 184 4.0 6.0 0.00 0.00 0.00 86 1016.4
20260502021957 52 163 2.0 3.0 0.00 0.00 0.00 86 1016.6
20260502021456 52 180 2.0 3.0 0.00 0.00 0.00 86 1016.6
20260502020957 52 155 1.0 4.0 0.00 0.00 0.00 86 1016.6
20260502020457 52 149 3.0 4.0 0.00 0.00 0.00 86 1016.6
20260502015958 53 186 2.0 3.0 0.00 0.00 0.00 86 1016.8
20260502015457 53 171 0.0 5.0 0.00 0.00 0.00 86 1016.8
20260502014958 53 148 2.0 6.0 0.00 0.00 0.00 86 1016.8
20260502014459 53 157 2.0 6.0 0.00 0.00 0.00 86 1016.8
20260502013958 53 128 1.0 4.0 0.00 0.00 0.00 86 1016.9
20260502013458 53 162 5.0 5.0 0.00 0.00 0.00 86 1017.0
20260502012957 53 174 0.0 5.0 0.00 0.00 0.00 86 1017.1
20260502012459 53 170 1.0 4.0 0.00 0.00 0.00 86 1017.1
20260502010957 53 210 1.0 4.0 0.00 0.00 0.00 86 1017.3
20260502010459 53 184 1.0 4.0 0.00 0.00 0.00 86 1017.5
20260502005958 53 192 2.0 4.0 0.00 0.00 0.00 86 1017.5
20260502005457 53 202 2.0 4.0 0.00 0.00 0.00 86 1017.5
20260502004959 53 200 0.0 3.0 0.00 0.00 0.00 86 1017.5
20260502003959 53 185 2.0 4.0 0.00 0.00 0.00 86 1017.7
20260502003459 53 184 0.0 2.0 0.00 0.00 0.00 86 1017.6
20260502002959 53 162 0.0 3.0 0.00 0.00 0.00 86 1017.6
20260502002457 53 164 2.0 4.0 0.00 0.00 0.00 86 1017.6
20260502001957 53 192 1.0 3.0 0.00 0.00 0.00 86 1017.7
20260502001458 53 192 1.0 3.0 0.00 0.00 0.00 86 1017.7
20260502000957 53 181 2.0 3.0 0.00 0.00 0.00 86 1017.7
20260502000457 53 183 2.0 5.0 0.00 0.00 0.00 86 1017.6
20260501235959 53 202 2.0 6.0 0.00 0.00 0.00 86 1017.7
20260501235457 53 173 1.0 6.0 0.00 0.00 0.00 86 1017.7
20260501234457 53 173 0.0 2.0 0.00 0.00 0.00 85 1017.8
20260501233957 53 182 2.0 4.0 0.00 0.00 0.00 85 1017.8
20260501233458 53 186 2.0 4.0 0.00 0.00 0.00 85 1017.9
20260501232957 53 208 1.0 3.0 0.00 0.00 0.00 85 1017.8
20260501231958 53 181 2.0 6.0 0.00 0.00 0.00 85 1018.0
20260501230958 53 196 2.0 4.0 0.00 0.00 0.00 85 1018.1
20260501230002 53 211 2.0 5.0 0.00 0.00 0.00 85 1018.0
20260501225459 53 235 1.0 3.0 0.00 0.00 0.00 85 1018.0
20260501224458 53 202 0.0 2.0 0.00 0.00 0.00 85 1018.2
20260501223958 53 182 0.0 4.0 0.00 0.00 0.00 85 1018.2
20260501223457 53 174 1.0 4.0 0.00 0.00 0.00 85 1018.2
20260501222959 53 196 2.0 3.0 0.00 0.00 0.00 85 1018.1
20260501222458 53 184 2.0 3.0 0.00 0.00 0.00 84 1018.1
20260501221959 53 179 2.0 3.0 0.00 0.00 0.00 84 1018.2
20260501221459 53 195 2.0 3.0 0.00 0.00 0.00 84 1018.2
20260501220959 53 194 3.0 4.0 0.00 0.00 0.00 84 1018.1
20260501220500 53 190 1.0 4.0 0.00 0.00 0.00 84 1018.2
20260501220000 53 192 2.0 4.0 0.00 0.00 0.00 84 1018.2
20260501214959 53 194 2.0 3.0 0.00 0.00 0.00 84 1018.3
20260501214459 53 196 1.0 3.0 0.00 0.00 0.00 83 1018.3
20260501212958 53 209 2.0 4.0 0.00 0.00 0.00 83 1018.4
20260501212459 53 214 1.0 4.0 0.00 0.00 0.00 83 1018.4
20260501211958 53 217 3.0 4.0 0.00 0.00 0.00 83 1018.3
20260501210958 53 216 2.0 6.0 0.00 0.00 0.00 83 1018.3